Home   Weather   Abisko Nationalpark   Past weeks
Flag for Sweden

Past Weather in Abisko Nationalpark, Sweden — Yesterday and Last 2 Weeks

Now
50 °F

Light rain. More clouds than sun.


Feels Like: 46 °F
Forecast: 57 / 45 °F
Wind: 12 mph from East

Location: Kiruna Airport

Current Time: Jun 5, 2020 at 7:04:12 pm

Latest Report: Jun 5, 2020 at 6:20 pm


Visibility: N/A

Pressure: 29.68 "Hg

Humidity: 88%

Dew Point: 46 °F

Location of Abisko NationalparkLocation

Past Weather in Abisko Nationalpark — Graph

°F

Abisko Nationalpark Temperature Yesterday

Maximum temperature yesterday: 55 °F (at 2:50 pm)
Minimum temperature yesterday: 45 °F (at 2:50 am)
Average temperature yesterday: 49 °F

High & Low Weather Summary for the Past Weeks

 TemperatureHumidityPressure
High72 °F (Jun 1, 4:20 pm)100% (Jun 4, 5:20 am)30.51 "Hg (Jun 4, 5:20 am)
Low27 °F (May 22, 2:50 am)29% (Jun 1, 5:20 pm)29.68 "Hg (Jun 5, 3:20 pm)
Average48 °F62%30.11 "Hg
* Reported May 21 5:20 pm — Jun 5 5:50 pm, Abisko Nationalpark. Weather by CustomWeather, © 2020

Note: Actual official high and low records may vary slightly from our data, if they occured in-between our weather recording intervals... More about our weather records

Abisko Nationalpark Weather History for the Previous 24 Hours

Scroll right to see more
 ConditionsComfort  
Time TempWeatherWind HumidityBarometerVisibility
5:50 pm
Fri, Jun 5
52 °FLight rain. Overcast.14 mph77%29.71 "HgN/A
5:20 pm54 °FDrizzle. Overcast.14 mph72%29.71 "HgN/A
4:50 pm55 °FMostly cloudy.17 mph63%29.71 "HgN/A
4:20 pm57 °FMostly cloudy.12 mph55%29.68 "HgN/A
3:50 pm57 °FOvercast.15 mph59%29.68 "HgN/A
3:20 pm59 °FMostly cloudy.12 mph59%29.68 "HgN/A
2:50 pm59 °FMore clouds than sun.14 mph59%29.71 "HgN/A
2:20 pm57 °FPartly sunny.10 mph63%29.71 "HgN/A
1:50 pm57 °FBroken clouds.12 mph63%29.71 "HgN/A
1:20 pm57 °FScattered clouds.12 mph63%29.74 "HgN/A
12:50 pm57 °FScattered clouds.10 mph67%29.74 "HgN/A
12:20 pm57 °FScattered clouds.10 mph67%29.74 "HgN/A
11:50 am55 °FScattered clouds.8 mph67%29.77 "HgN/A
11:20 am54 °FMostly cloudy.9 mph72%29.77 "HgN/A
10:50 am52 °FBroken clouds.8 mph77%29.77 "HgN/A
10:20 am50 °FOvercast.9 mph82%29.77 "HgN/A
9:50 am50 °FMore clouds than sun.9 mph82%29.77 "HgN/A
9:20 am48 °FMostly cloudy.9 mph94%29.77 "HgN/A
8:50 am48 °FMostly cloudy.9 mph94%29.77 "HgN/A
8:20 am48 °FLow clouds.9 mph94%29.80 "HgN/A
7:50 am48 °FLow clouds.10 mph94%29.80 "HgN/A
7:20 am46 °FLow clouds.8 mph100%29.80 "HgN/A
6:50 am46 °FLow clouds.9 mph100%29.80 "HgN/A
6:20 am46 °FLow clouds.7 mph100%29.80 "HgN/A
5:50 am46 °FLow clouds.9 mph100%29.80 "HgN/A
5:20 am46 °FLow clouds.5 mph100%29.80 "HgN/A
4:50 am46 °FMostly cloudy.6 mph100%29.80 "HgN/A
4:20 am46 °FMostly cloudy.5 mph100%29.80 "HgN/A
3:50 am46 °FMore clouds than sun.3 mph100%29.80 "HgN/A
3:20 am46 °FMore clouds than sun.5 mph93%29.83 "Hg2 mi
2:50 am46 °FFog.3 mph100%29.80 "Hg1 mi
2:20 am46 °FPartly sunny.3 mph100%29.83 "Hg1 mi
1:50 am46 °FOvercast.3 mph100%29.83 "Hg5 mi
1:20 am46 °FFog.2 mph100%29.83 "Hg1 mi
12:50 am46 °FFog.No wind100%29.83 "Hg0 mi
12:20 am46 °FFog.2 mph100%29.83 "Hg1 mi
11:50 pm
Thu, Jun 4
48 °FScattered clouds.5 mph94%29.83 "HgN/A
11:20 pm48 °FPartly sunny.5 mph100%29.83 "HgN/A
10:50 pm50 °FLow clouds.3 mph94%29.83 "HgN/A
10:20 pm50 °FScattered clouds.5 mph100%29.83 "HgN/A
9:50 pm52 °FPartly sunny.3 mph94%29.83 "Hg6 mi
9:20 pm52 °FScattered clouds.5 mph94%29.83 "HgN/A
8:50 pm52 °FBroken clouds.5 mph100%29.83 "HgN/A
8:20 pm54 °FMostly cloudy.3 mph94%29.83 "HgN/A
7:50 pm54 °FCloudy.5 mph94%29.80 "HgN/A
7:20 pm54 °FOvercast.6 mph94%29.80 "HgN/A
Weather by CustomWeather, © 2020

See weather overview

Advertising